{"data":{"norad_id":53429,"intl_designator":"2022-097AT","name":"STARLINK-4543","alt_names":[],"object_type":"PAYLOAD","status":"ACTIVE","operator":null,"country":"US","launch_date":"2022-08-10","launch_site_code":"AFETR","launch_vehicle":null,"mission":null,"orbit_class":"UNKNOWN","rcs_meters":null,"size_class":null,"mass_kg":null,"dimensions":null,"purposes":["comms"],"wikipedia_slug":null,"has_3d_model":false,"image_url":null,"decayed_at":null,"tle_current":{"epoch":"2026-09-19T19:37:36.995520Z","epoch_age_seconds":134388,"freshness":"FRESH","line1":"1 53429U 22097AT  26262.81778930  .00000154  00000+0  15339-4 0  9998","line2":"2 53429  53.1586 297.0400 0001251  90.6971 269.4175 15.35395025228303","mean_motion":15.35395025,"eccentricity":0.0001251,"inclination_deg":53.1586,"raan_deg":297.04,"arg_perigee_deg":90.6971,"mean_anomaly_deg":269.4175,"bstar":1.5339e-5,"rev_number":22830,"period_min":93.786939292707,"perigee_km":458.89199414185,"apogee_km":460.6028328221,"semimajor_km":6837.884413482,"source":"CELESTRAK","updated_at":"2026-09-20T09:00:40.231156Z"}}}